TimePST,TemperatureF,Dew PointF,Humidity,Sea Level PressureIn,VisibilityMPH,Wind Direction,Wind SpeedMPH,Gust SpeedMPH,PrecipitationIn,Events,Conditions,WindDirDegrees,DateUTC
12:52 AM,60.1,55.9,86,29.94,3.0,ESE,4.6,-,0.02,Rain,Light Rain,110,2013-01-26 08:52:00
1:52 AM,60.1,57.0,90,29.92,2.0,Calm,Calm,-,0.00,Rain,Light Rain,0,2013-01-26 09:52:00
2:17 AM,60.8,57.2,88,29.92,2.0,Calm,Calm,-,0.00,Rain,Light Rain,0,2013-01-26 10:17:00
2:41 AM,60.8,57.2,88,29.92,3.0,Calm,Calm,-,0.00,Rain,Light Rain,0,2013-01-26 10:41:00
2:52 AM,60.1,57.0,90,29.91,4.0,Calm,Calm,-,0.00,Rain,Light Rain,0,2013-01-26 10:52:00
3:15 AM,59.0,57.2,94,29.91,3.0,Calm,Calm,-,0.00,,Overcast,0,2013-01-26 11:15:00
3:32 AM,59.0,57.2,94,29.91,5.0,Calm,Calm,-,0.00,,Mostly Cloudy,0,2013-01-26 11:32:00
3:52 AM,59.0,57.0,93,29.90,3.0,Calm,Calm,-,0.00,,Mostly Cloudy,0,2013-01-26 11:52:00
4:18 AM,59.0,57.2,94,29.90,3.0,Calm,Calm,-,N/A,,Mostly Cloudy,0,2013-01-26 12:18:00
4:30 AM,60.8,57.2,88,29.89,0.5,Calm,Calm,-,N/A,Fog,Fog,0,2013-01-26 12:30:00
4:52 AM,60.1,57.0,90,29.89,1.0,Calm,Calm,-,N/A,,Mostly Cloudy,0,2013-01-26 12:52:00
5:03 AM,60.8,57.2,88,29.89,3.0,Calm,Calm,-,N/A,,Mostly Cloudy,0,2013-01-26 13:03:00
5:52 AM,60.1,57.0,90,29.90,5.0,SSW,3.5,-,N/A,,Mostly Cloudy,210,2013-01-26 13:52:00
6:07 AM,60.8,57.2,88,29.91,2.5,SW,4.6,-,N/A,,Overcast,230,2013-01-26 14:07:00
6:17 AM,60.8,57.2,88,29.91,3.0,SSW,5.8,-,N/A,,Overcast,210,2013-01-26 14:17:00
6:28 AM,60.8,55.4,82,29.91,1.0,SSW,5.8,-,N/A,,Overcast,210,2013-01-26 14:28:00
6:43 AM,60.8,57.2,88,29.91,0.5,SSW,3.5,-,N/A,Fog,Fog,200,2013-01-26 14:43:00
6:52 AM,60.1,57.0,90,29.92,0.2,SSW,3.5,-,N/A,Fog,Fog,200,2013-01-26 14:52:00
7:46 AM,59.0,55.4,88,29.92,0.1,South,3.5,-,0.00,Fog-Rain,Light Rain,190,2013-01-26 15:46:00
7:52 AM,59.0,55.9,90,29.92,0.1,SSW,3.5,-,0.00,Fog-Rain,Light Rain,210,2013-01-26 15:52:00
8:30 AM,60.8,57.2,88,29.93,3.0,Calm,Calm,-,0.00,Rain,Light Rain,0,2013-01-26 16:30:00
8:52 AM,61.0,57.9,90,29.94,5.0,Calm,Calm,-,0.00,,Overcast,0,2013-01-26 16:52:00
9:18 AM,60.8,57.2,88,29.94,2.0,Calm,Calm,-,0.00,Rain,Light Rain,0,2013-01-26 17:18:00
9:52 AM,61.0,57.9,90,29.95,1.0,Calm,Calm,-,0.00,Rain,Light Rain,0,2013-01-26 17:52:00
10:23 AM,60.8,57.2,88,29.95,1.0,Calm,Calm,-,0.00,,Overcast,0,2013-01-26 18:23:00
10:52 AM,61.0,57.0,87,29.95,0.2,Calm,Calm,-,0.00,Fog,Fog,0,2013-01-26 18:52:00
11:05 AM,60.8,57.2,88,29.95,0.2,Calm,Calm,-,0.00,Fog-Rain,Light Rain,0,2013-01-26 19:05:00
11:26 AM,62.6,60.8,94,29.94,3.0,SSW,3.5,-,0.00,,Overcast,200,2013-01-26 19:26:00
11:47 AM,62.6,59.0,88,29.93,4.0,South,5.8,-,0.00,,Overcast,190,2013-01-26 19:47:00
11:52 AM,63.0,60.1,90,29.93,4.0,South,4.6,-,0.00,,Overcast,190,2013-01-26 19:52:00
12:39 PM,62.6,57.2,82,29.92,2.0,WSW,6.9,-,N/A,,Overcast,240,2013-01-26 20:39:00
12:52 PM,62.1,57.9,86,29.92,2.0,WSW,6.9,-,N/A,,Overcast,240,2013-01-26 20:52:00
1:29 PM,62.6,57.2,82,29.91,2.0,SSW,4.6,-,N/A,,Overcast,200,2013-01-26 21:29:00
1:52 PM,61.0,55.9,83,29.92,4.0,SSW,6.9,-,N/A,,Overcast,210,2013-01-26 21:52:00
2:52 PM,61.0,55.9,83,29.94,4.0,WSW,8.1,-,N/A,,Overcast,250,2013-01-26 22:52:00
3:52 PM,61.0,55.9,83,29.94,6.0,WSW,6.9,-,N/A,,Overcast,240,2013-01-26 23:52:00
4:52 PM,60.1,55.9,86,29.95,6.0,West,6.9,-,N/A,,Overcast,260,2013-01-27 00:52:00
5:52 PM,60.1,55.9,86,29.96,4.0,South,3.5,-,N/A,,Overcast,170,2013-01-27 01:52:00
6:52 PM,59.0,55.9,90,29.97,4.0,SSE,3.5,-,N/A,,Overcast,160,2013-01-27 02:52:00
7:52 PM,59.0,55.0,87,29.98,3.0,SSE,5.8,-,0.00,,Light Drizzle,160,2013-01-27 03:52:00
8:52 PM,60.1,55.9,86,29.99,4.0,South,5.8,-,0.00,,Light Drizzle,190,2013-01-27 04:52:00
9:52 PM,59.0,55.9,90,30.01,2.0,SSW,4.6,-,0.00,Rain,Light Rain,210,2013-01-27 05:52:00
10:16 PM,57.2,55.4,94,30.01,2.0,WSW,8.1,-,0.00,Rain,Light Rain,250,2013-01-27 06:16:00
10:30 PM,59.0,55.4,88,30.01,3.0,WSW,5.8,-,0.00,Rain,Light Rain,250,2013-01-27 06:30:00
10:52 PM,59.0,55.0,87,30.02,2.0,WSW,5.8,-,0.00,Rain,Light Rain,240,2013-01-27 06:52:00
11:33 PM,59.0,55.4,88,30.02,4.0,SW,5.8,-,0.00,Rain,Light Rain,230,2013-01-27 07:33:00
11:52 PM,59.0,55.0,87,30.02,5.0,SW,4.6,-,0.00,,Overcast,230,2013-01-27 07:52:00